Tracking 17149 objects as of 22-May-2015
HD Live streaming from Space Station

CZ-4 DEB

Track CZ-4 DEB now!
10-day predictions
CZ-4 DEB is classified as:


NORAD ID: 26259
Int'l Code: 1999-057EV
Perigee: 673.1 km
Apogee: 805.8 km
Inclination: 98.5 °
Period: 99.4 minutes
Semi major axis: 7110 km
RCS: 0.031 m2 (small)
Launch date: October 14, 1999
Source: People's Republic of China (PRC)

Note: This is SATELLITE DEBRIS
Your satellite tracking list
Your tracking list is empty





NASA's NSSDC Master Catalog

Two Line Element Set (TLE):
1 26259U 99057EV  15141.17142631  .00002091  00000-0  54570-3 0  9997
2 26259 098.4854 105.1651 0093290 174.3725 253.7777 14.47970018796084

Source of the keplerian elements: AFSPC

N2YO: 409